Location: Binningen
(47.7924°N, 8.7261°E)
Time: 09:06:45
(UTC+00:00)

Cosmos 2369 Rocket - Pass Details

Date: 17 May 2021
Orbit: 827 x 854 km, 71.0° (Epoch: 15 June)

Event Time Altitude Azimuth Distance (km) Brightness Sun altitude
Exits shadow 20:42:55 20° 145° (SE) 1,833 3.3 -13.9°
Maximum altitude 20:45:32 29° 104° (ESE) 1,494 3.1 -14.2°
Drops below altitude 10° 20:50:19 10° 46° (NE) 2,467 4.7 -14.6°
Sets 20:53:03 0° 36° (NE) 3,411 5.6 -14.9°
